Latest Weather Observations for Jimna

IDQ60901

Issued at 12:21 pm EST Thursday 18 December 2014 (issued every 10 minutes, with the page automatically refreshed every 10 minutes)

About weather observations | Map of Brisbane area stations | Latest observations for Brisbane area | Other Formats
Station Details ID: 040651 Name: JIMNA FORESTRY Lat: -26.66 Lon: 152.46 Height: 523.0 m
Data from the previous 72 hours. | See also: Recent months at Jimna
Date/Time
EST
Tmp

°C
App
Tmp
°C
Dew
Point
°C
Rel
Hum
%
Delta-T

°C
Wind Press
QNH
hPa
Press
MSL
hPa
Rain
since
9 am
mm
Dir
 
Spd
km/h
Gust
km/h
Spd
kts
Gust
kts
18/12:00pm 29.9 - 18.3 49 7.6 - - - - - - - 0.2
18/11:30am 29.5 - 18.6 52 7.2 - - - - - - - 0.2
18/11:00am 28.9 - 18.1 52 7.0 - - - - - - - 0.2
18/10:30am 28.3 - 18.7 56 6.3 - - - - - - - 0.2
18/10:00am 26.9 - 17.7 57 5.9 - - - - - - - 0.2
18/09:30am 26.5 - 18.1 60 5.4 - - - - - - - 0.0
18/09:00am 24.9 - 17.6 64 4.7 - - - - - - - 17.8
18/08:30am 25.1 - 16.8 60 5.2 - - - - - - - 17.8
18/08:00am 24.7 - 16.4 60 5.2 - - - - - - - 17.8
18/07:30am 24.8 - 15.7 57 5.6 - - - - - - - 17.8
18/07:00am 24.0 - 16.5 63 4.7 - - - - - - - 17.8
18/06:30am 20.1 - 18.4 90 1.1 - - - - - - - 17.8
18/06:00am 17.4 - 16.6 95 0.5 - - - - - - - 17.8
18/05:30am 16.7 - 15.4 92 0.8 - - - - - - - 17.8
18/05:00am 16.7 - 15.1 90 1.0 - - - - - - - 17.8
18/04:30am 16.9 - 15.4 91 0.9 - - - - - - - 17.8
18/04:00am 17.1 - 15.6 91 0.9 - - - - - - - 17.8
18/03:30am 17.4 - 15.9 91 0.9 - - - - - - - 17.8
18/03:00am 17.5 - 16.0 91 0.9 - - - - - - - 17.8
18/02:30am 18.3 - 15.9 86 1.5 - - - - - - - 17.8
18/02:00am 17.8 - 15.8 88 1.2 - - - - - - - 17.8
18/01:30am 18.2 - 16.5 90 1.0 - - - - - - - 17.8
18/01:00am 18.5 - 17.0 91 0.9 - - - - - - - 17.8
18/12:30am 18.5 - 16.8 90 1.0 - - - - - - - 17.8
18/12:00am 18.7 - 17.0 90 1.1 - - - - - - - 17.8
 
Date/Time
EST
Tmp

°C
App
Tmp
°C
Dew
Point
°C
Rel
Hum
%
Delta-T

°C
Wind Press
QNH
hPa
Press
MSL
hPa
Rain
since
9 am
mm
Dir
 
Spd
km/h
Gust
km/h
Spd
kts
Gust
kts
17/11:30pm 19.4 - 16.6 84 1.7 - - - - - - - 17.6
17/11:00pm 21.2 - 15.7 71 3.4 - - - - - - - 14.4
17/10:30pm 19.3 - 16.0 81 2.0 - - - - - - - 14.2
17/10:00pm 19.0 - 16.0 83 1.8 - - - - - - - 14.2
17/09:30pm 18.9 - 16.1 84 1.7 - - - - - - - 14.2
17/09:00pm 19.2 - 16.2 83 1.8 - - - - - - - 14.2
17/08:30pm 19.2 - 16.6 85 1.6 - - - - - - - 14.2
17/08:00pm 19.0 - 16.8 87 1.4 - - - - - - - 14.2
17/07:30pm 19.1 - 17.4 90 1.1 - - - - - - - 14.2
17/07:00pm 19.2 - 17.7 91 0.9 - - - - - - - 14.2
17/06:30pm 19.2 - 17.7 91 0.9 - - - - - - - 14.2
17/06:00pm 19.0 - 17.3 90 1.1 - - - - - - - 14.2
17/05:30pm 20.7 - 13.4 63 4.3 - - - - - - - 4.0
17/05:27pm 23.0 - 12.6 52 6.1 - - - - - - - 1.2
17/05:00pm 28.0 - 12.8 39 9.1 - - - - - - - 0.0
17/04:30pm 29.9 - 11.4 32 10.9 - - - - - - - 0.0
17/04:00pm 29.7 - 13.5 37 9.9 - - - - - - - 0.0
17/03:30pm 32.3 - 13.0 31 11.8 - - - - - - - 0.0
17/03:00pm 32.1 - 13.3 31 11.5 - - - - - - - 0.0
17/02:30pm 33.1 - 12.7 29 12.5 - - - - - - - 0.0
17/02:00pm 34.1 - 11.3 25 13.7 - - - - - - - 0.0
17/01:30pm 33.9 - 13.9 30 12.5 - - - - - - - 0.0
17/01:00pm 33.8 - 14.8 32 12.0 - - - - - - - 0.0
17/12:30pm 33.6 - 13.6 29 12.4 - - - - - - - 0.0
17/12:00pm 33.5 - 15.5 34 11.5 - - - - - - - 0.0
17/11:30am 32.7 - 13.8 31 11.7 - - - - - - - 0.0
17/11:00am 32.1 - 12.8 30 11.8 - - - - - - - 0.0
17/10:30am 31.5 - 14.6 36 10.5 - - - - - - - 0.0
17/10:00am 31.6 - 16.3 39 9.8 - - - - - - - 0.0
17/09:30am 30.4 - 15.3 40 9.5 - - - - - - - 0.0
17/09:00am 29.8 - 14.7 39 9.4 - - - - - - - 0.0
17/08:30am 28.8 - 14.2 40 9.0 - - - - - - - 0.0
17/08:00am 27.7 - 15.7 48 7.5 - - - - - - - 0.0
17/07:30am 25.7 - 17.6 61 5.2 - - - - - - - 0.0
17/07:00am 23.9 - 16.7 64 4.5 - - - - - - - 0.0
17/06:30am 21.1 - 17.1 78 2.5 - - - - - - - 0.0
17/06:00am 20.0 - 16.6 81 2.1 - - - - - - - 0.0
17/05:30am 19.5 - 16.0 80 2.1 - - - - - - - 0.0
17/05:00am 19.2 - 15.5 79 2.2 - - - - - - - 0.0
17/04:30am 19.3 - 15.6 79 2.2 - - - - - - - 0.0
17/04:00am 20.3 - 15.5 74 2.9 - - - - - - - 0.0
17/03:30am 19.8 - 15.9 78 2.4 - - - - - - - 0.0
17/03:00am 19.8 - 15.7 77 2.5 - - - - - - - 0.0
17/02:30am 19.8 - 15.9 78 2.4 - - - - - - - 0.0
17/02:00am 20.0 - 15.6 76 2.7 - - - - - - - 0.0
17/01:30am 20.2 - 15.4 74 2.9 - - - - - - - 0.0
17/01:00am 20.5 - 15.9 75 2.8 - - - - - - - 0.0
17/12:30am 20.5 - 16.1 76 2.7 - - - - - - - 0.0
17/12:00am 20.7 - 17.1 80 2.2 - - - - - - - 0.0
 
Date/Time
EST
Tmp

°C
App
Tmp
°C
Dew
Point
°C
Rel
Hum
%
Delta-T

°C
Wind Press
QNH
hPa
Press
MSL
hPa
Rain
since
9 am
mm
Dir
 
Spd
km/h
Gust
km/h
Spd
kts
Gust
kts
16/11:30pm 21.0 - 17.8 82 2.0 - - - - - - - 0.0
16/11:00pm 21.4 - 18.4 83 1.9 - - - - - - - 0.0
16/10:30pm 22.5 - 19.3 82 2.1 - - - - - - - 0.0
16/10:00pm 21.6 - 18.8 84 1.8 - - - - - - - 0.0
16/09:30pm 22.1 - 18.9 82 2.1 - - - - - - - 0.0
16/09:00pm 22.7 - 19.1 80 2.3 - - - - - - - 0.0
16/08:30pm 23.1 - 19.1 78 2.6 - - - - - - - 0.0
16/08:00pm 23.6 - 18.9 75 3.0 - - - - - - - 0.0
16/07:30pm 24.2 - 18.6 71 3.6 - - - - - - - 0.0
16/07:00pm 25.2 - 17.7 63 4.8 - - - - - - - 0.0
16/06:30pm 25.7 - 13.9 48 7.1 - - - - - - - 0.0
16/06:00pm 27.0 - 14.1 45 7.9 - - - - - - - 0.0
16/05:30pm 27.9 - 13.1 40 8.9 - - - - - - - 0.0
16/05:00pm 29.6 - 12.9 35 10.1 - - - - - - - 0.0
16/04:30pm 30.8 - 11.7 31 11.4 - - - - - - - 0.0
16/04:00pm 30.6 - 13.0 34 10.7 - - - - - - - 0.0
16/03:30pm 30.9 - 12.3 32 11.2 - - - - - - - 0.0
16/03:00pm 30.8 - 12.2 32 11.2 - - - - - - - 0.0
16/02:30pm 30.4 - 12.3 33 10.9 - - - - - - - 0.0
16/02:00pm 29.7 - 12.6 35 10.3 - - - - - - - 0.0
16/01:30pm 28.6 - 12.1 36 9.8 - - - - - - - 0.0
16/01:00pm 28.8 - 13.1 38 9.5 - - - - - - - 0.0
16/12:30pm 29.0 - 14.4 41 9.0 - - - - - - - 0.0
16/12:00pm 28.2 - 13.7 41 8.8 - - - - - - - 0.0
16/11:30am 26.3 - 15.7 52 6.6 - - - - - - - 0.0
16/11:00am 26.0 - 16.0 54 6.3 - - - - - - - 0.0
16/10:30am 25.6 - 16.2 56 5.9 - - - - - - - 0.0
16/10:00am 24.5 - 16.2 60 5.2 - - - - - - - 0.0
16/09:30am 24.2 - 16.7 63 4.7 - - - - - - - 0.0
16/09:00am 22.4 - 15.7 66 4.1 - - - - - - - 0.0
16/08:30am 21.9 - 16.8 73 3.2 - - - - - - - 0.0
16/08:00am 20.3 - 15.5 74 2.9 - - - - - - - 0.0
16/07:30am 19.7 - 15.1 75 2.8 - - - - - - - 0.0
16/07:00am 18.5 - 15.9 85 1.6 - - - - - - - 0.0
16/06:30am 17.1 - 16.5 96 0.4 - - - - - - - 0.0
16/06:00am 14.7 - 14.5 99 0.1 - - - - - - - 0.0
16/05:30am 13.6 - 12.7 94 0.5 - - - - - - - 0.0
16/05:00am 13.4 - 12.1 92 0.7 - - - - - - - 0.0
16/04:30am 13.3 - 11.9 91 0.8 - - - - - - - 0.0
16/04:00am 13.6 - 12.2 91 0.8 - - - - - - - 0.0
16/03:30am 13.8 - 12.5 92 0.7 - - - - - - - 0.0
16/03:00am 13.9 - 12.5 91 0.8 - - - - - - - 0.0
16/02:30am 14.3 - 12.9 91 0.8 - - - - - - - 0.0
16/02:00am 14.5 - 13.0 91 0.8 - - - - - - - 0.0
16/01:30am 14.8 - 13.2 90 0.9 - - - - - - - 0.0
16/01:00am 15.0 - 13.4 90 0.9 - - - - - - - 0.0
16/12:30am 15.4 - 13.6 89 1.0 - - - - - - - 0.0
16/12:00am 16.0 - 13.8 87 1.3 - - - - - - - 0.0
 
Date/Time
EST
Tmp

°C
App
Tmp
°C
Dew
Point
°C
Rel
Hum
%
Delta-T

°C
Wind Press
QNH
hPa
Press
MSL
hPa
Rain
since
9 am
mm
Dir
 
Spd
km/h
Gust
km/h
Spd
kts
Gust
kts
15/11:30pm 16.7 - 14.3 86 1.4 - - - - - - - 0.0
15/11:00pm 16.7 - 14.2 85 1.5 - - - - - - - 0.0
15/10:30pm 16.9 - 14.0 83 1.7 - - - - - - - 0.0
15/10:00pm 17.2 - 13.9 81 1.9 - - - - - - - 0.0
15/09:30pm 17.5 - 13.8 79 2.2 - - - - - - - 0.0
15/09:00pm 17.9 - 14.0 78 2.3 - - - - - - - 0.0
15/08:30pm 18.4 - 14.1 76 2.5 - - - - - - - 0.0
15/08:00pm 19.0 - 13.8 72 3.0 - - - - - - - 0.0
15/07:30pm 19.7 - 13.9 69 3.4 - - - - - - - 0.0
15/07:00pm 20.6 - 14.0 66 3.9 - - - - - - - 0.0
15/06:30pm 21.6 - 14.5 64 4.3 - - - - - - - 0.0
15/06:00pm 22.6 - 14.7 61 4.8 - - - - - - - 0.0
15/05:30pm 23.3 - 14.3 57 5.4 - - - - - - - 0.0
15/05:00pm 25.0 - 13.2 48 7.0 - - - - - - - 0.0
15/04:30pm 26.3 - 9.6 35 9.4 - - - - - - - 0.0
15/04:00pm 27.0 - 8.9 32 10.1 - - - - - - - 0.0
15/03:30pm 27.2 - 9.1 32 10.2 - - - - - - - 0.0
15/03:00pm 26.6 - 8.6 32 10.0 - - - - - - - 0.0
15/02:30pm 26.8 - 9.2 33 9.9 - - - - - - - 0.0
15/02:00pm 26.8 - 9.2 33 9.9 - - - - - - - 0.0
15/01:30pm 26.2 - 9.5 35 9.4 - - - - - - - 0.0
15/01:00pm 26.1 - 9.4 35 9.4 - - - - - - - 0.0
15/12:30pm 25.9 - 12.0 42 8.2 - - - - - - - 0.0

Latest Capital City Observations: Canberra | Sydney | Melbourne | Brisbane | Adelaide | Perth | Hobart | Darwin

Other Formats:

Comma delimited format used in spreadsheet applications
http://www.bom.gov.au/fwo/IDQ60901/IDQ60901.94557.axf

JavaScript Object Notation format (JSON) in row-major order
http://www.bom.gov.au/fwo/IDQ60901/IDQ60901.94557.json